Airnanti, Indonesia

12:34 PM WIB on December 17, 2017 (GMT +0700)
Batam Hang Nadim | | Change Station

Elev 125 ft 1.12 °N, 104.12 °E | Updated 34 minutes ago

Partly Cloudy
Partly Cloudy
88 °F
Feels Like 96 °F
N
12
Wind Variable Wind from North

Today
High -- | Low -- °F
--% Chance of Precip.
Yesterday
High -- | Low -- °F
Precip. -- in
Pressure 29.95 in
Visibility 6.2 miles
Clouds Scattered Clouds 1400 ft
Heat Index 96 °F
Dew Point 73 °F
Humidity 62%
Rainfall 0.00 in
Snow Depth Not available.
5:57 AM 6:01 PM
Waning Crescent, 1% visible
METAR WIDD 170500Z 01010KT 9999 SCT014 31/23 Q1014
Pressure 29.95 in
Visibility 6.2 miles
Clouds Scattered Clouds 1400 ft
Heat Index 96 °F
Dew Point 73 °F
Humidity 62%
Rainfall 0.00 in
Snow Depth Not available.
5:57 AM 6:01 PM
Waning Crescent, 1% visible
METAR WIDD 170500Z 01010KT 9999 SCT014 31/23 Q1014

Get Severe Weather Alerts

Thanks for signing up!

Be on the lookout for a verification email in your inbox.

You'll start receiving the daily forecast at 6 AM.

×

10-Day Weather Forecast

×

Almanac

Astronomy

Dec. 17, 2017 Rise Set
Actual Time
Civil Twilight
Nautical Twilight
Astronomical Twilight
Moon
Length of Visible Light
Length of Day
Tomorrow will be .
, % of the Moon is Illuminated

Today's Extremes

Country Highs Country Lows

Community

WunderPhotos

Category 6

Welcome to Category 6. This is the collective home for Weather Underground's featured writeups by Dr. Jeff Masters (right), Bob Henson (left), Chris Burt, and other regular contributors.

Nearby

Air Quality

  Air Quality AQ Index Pollutant
Not available.

Snow Depth

Station Depth Elevation

Earthquake Activity

City Distance Mag. Time & Date
Minimum magnitude displayed is 2.5.

Coastal Water Temperatures

Place Temperature

Stations

Nearby Weather Stations

Station Location Temp. Windchill Dew Point Humidity Wind Precip. Elev Updated Type